TimeMST,TemperatureF,Dew PointF,Humidity,Sea Level PressureIn,VisibilityMPH,Wind Direction,Wind SpeedMPH,Gust SpeedMPH,PrecipitationIn,Events,Conditions,WindDirDegrees,DateUTC
12:15 AM,71.6,17.6,13,29.90,10.0,Calm,Calm,-,N/A,,Clear,0,2013-05-27 07:15:00
12:35 AM,69.8,17.6,14,29.89,10.0,Calm,Calm,-,N/A,,Clear,0,2013-05-27 07:35:00
12:55 AM,71.6,19.4,14,29.89,10.0,SSW,3.5,-,N/A,,Clear,210,2013-05-27 07:55:00
1:15 AM,71.6,19.4,14,29.89,10.0,SSW,4.6,-,N/A,,Clear,210,2013-05-27 08:15:00
1:35 AM,66.2,17.6,15,29.89,10.0,ENE,3.5,-,N/A,,Clear,70,2013-05-27 08:35:00
1:55 AM,66.2,17.6,15,29.89,10.0,Calm,Calm,-,N/A,,Clear,0,2013-05-27 08:55:00
2:15 AM,64.4,17.6,16,29.89,10.0,Calm,Calm,-,N/A,,Clear,0,2013-05-27 09:15:00
2:35 AM,64.4,19.4,18,29.88,10.0,Calm,Calm,-,N/A,,Clear,0,2013-05-27 09:35:00
2:55 AM,62.6,19.4,19,29.88,10.0,North,6.9,-,N/A,,Clear,350,2013-05-27 09:55:00
3:15 AM,62.6,21.2,20,29.88,10.0,NNW,5.8,-,N/A,,Clear,340,2013-05-27 10:15:00
3:35 AM,64.4,24.8,22,29.88,10.0,WNW,3.5,-,N/A,,Clear,300,2013-05-27 10:35:00
3:55 AM,66.2,24.8,21,29.88,10.0,WSW,4.6,-,N/A,,Clear,240,2013-05-27 10:55:00
4:15 AM,68.0,24.8,20,29.88,10.0,SSW,4.6,-,N/A,,Clear,200,2013-05-27 11:15:00
4:35 AM,64.4,24.8,22,29.88,10.0,SSE,3.5,-,N/A,,Clear,160,2013-05-27 11:35:00
4:55 AM,64.4,24.8,22,29.88,10.0,South,4.6,-,N/A,,Clear,170,2013-05-27 11:55:00
5:15 AM,66.2,24.8,21,29.88,10.0,South,3.5,-,N/A,,Clear,170,2013-05-27 12:15:00
5:35 AM,62.6,21.2,20,29.88,10.0,Calm,Calm,-,N/A,,Clear,0,2013-05-27 12:35:00
5:55 AM,60.8,21.2,22,29.89,10.0,Calm,Calm,-,N/A,,Clear,0,2013-05-27 12:55:00
6:15 AM,62.6,23.0,22,29.89,10.0,East,3.5,-,N/A,,Clear,80,2013-05-27 13:15:00
6:35 AM,66.2,24.8,21,29.89,10.0,Calm,Calm,-,N/A,,Clear,0,2013-05-27 13:35:00
6:55 AM,66.2,24.8,21,29.89,10.0,Calm,Calm,-,N/A,,Clear,0,2013-05-27 13:55:00
7:15 AM,69.8,24.8,18,29.90,10.0,Calm,Calm,-,N/A,,Clear,0,2013-05-27 14:15:00
7:35 AM,71.6,24.8,17,29.90,10.0,Calm,Calm,-,N/A,,Clear,0,2013-05-27 14:35:00
7:55 AM,73.4,24.8,16,29.90,10.0,Calm,Calm,-,N/A,,Clear,0,2013-05-27 14:55:00
8:15 AM,75.2,26.6,17,29.90,10.0,Calm,Calm,-,N/A,,Clear,0,2013-05-27 15:15:00
8:35 AM,77.0,26.6,16,29.90,10.0,Calm,Calm,-,N/A,,Clear,0,2013-05-27 15:35:00
8:55 AM,78.8,28.4,16,29.89,10.0,Calm,Calm,-,N/A,,Clear,0,2013-05-27 15:55:00
9:15 AM,78.8,30.2,17,29.88,10.0,Calm,Calm,-,N/A,,Clear,0,2013-05-27 16:15:00
9:35 AM,80.6,30.2,16,29.88,10.0,ESE,4.6,-,N/A,,Clear,110,2013-05-27 16:35:00
9:55 AM,80.6,30.2,16,29.88,10.0,East,3.5,-,N/A,,Clear,100,2013-05-27 16:55:00
10:15 AM,82.4,32.0,16,29.87,10.0,Calm,Calm,-,N/A,,Clear,0,2013-05-27 17:15:00
10:35 AM,82.4,32.0,16,29.88,10.0,Calm,Calm,-,N/A,,Clear,0,2013-05-27 17:35:00
10:55 AM,84.2,33.8,16,29.87,10.0,SSW,3.5,-,N/A,,Partly Cloudy,200,2013-05-27 17:55:00
11:15 AM,84.2,32.0,15,29.87,10.0,West,3.5,-,N/A,,Partly Cloudy,280,2013-05-27 18:15:00
11:35 AM,84.2,32.0,15,29.85,10.0,ESE,6.9,-,N/A,,Partly Cloudy,110,2013-05-27 18:35:00
11:55 AM,87.8,32.0,14,29.85,10.0,NE,3.5,-,N/A,,Clear,50,2013-05-27 18:55:00
12:15 PM,87.8,32.0,14,29.84,10.0,Calm,Calm,-,N/A,,Partly Cloudy,0,2013-05-27 19:15:00
12:35 PM,87.8,32.0,14,29.84,10.0,WSW,6.9,-,N/A,,Partly Cloudy,240,2013-05-27 19:35:00
12:55 PM,89.6,30.2,12,29.84,10.0,Calm,Calm,-,N/A,,Partly Cloudy,0,2013-05-27 19:55:00
1:15 PM,89.6,30.2,12,29.84,10.0,Calm,Calm,-,N/A,,Partly Cloudy,0,2013-05-27 20:15:00
1:35 PM,89.6,30.2,12,29.83,10.0,NE,3.5,-,N/A,,Partly Cloudy,50,2013-05-27 20:35:00
1:55 PM,91.4,30.2,11,29.82,10.0,West,9.2,-,N/A,,Clear,260,2013-05-27 20:55:00
2:15 PM,91.4,30.2,11,29.81,10.0,NW,8.1,-,N/A,,Clear,310,2013-05-27 21:15:00
2:35 PM,91.4,30.2,11,29.80,10.0,Calm,Calm,-,N/A,,Clear,0,2013-05-27 21:35:00
2:55 PM,91.4,30.2,11,29.80,10.0,South,5.8,-,N/A,,Clear,190,2013-05-27 21:55:00
3:15 PM,93.2,30.2,11,29.78,10.0,NNW,3.5,-,N/A,,Clear,330,2013-05-27 22:15:00
3:35 PM,93.2,30.2,11,29.78,10.0,WSW,3.5,-,N/A,,Clear,250,2013-05-27 22:35:00
3:55 PM,93.2,30.2,11,29.77,10.0,West,5.8,-,N/A,,Clear,280,2013-05-27 22:55:00
4:15 PM,95.0,30.2,10,29.77,10.0,West,13.8,-,N/A,,Clear,280,2013-05-27 23:15:00
4:35 PM,93.2,33.8,12,29.76,10.0,West,12.7,18.4,N/A,,Clear,280,2013-05-27 23:35:00
4:55 PM,93.2,33.8,12,29.76,10.0,West,11.5,-,N/A,,Clear,270,2013-05-27 23:55:00
5:15 PM,93.2,33.8,12,29.75,10.0,WNW,6.9,-,N/A,,Clear,290,2013-05-28 00:15:00
5:35 PM,93.2,32.0,11,29.74,10.0,WNW,11.5,-,N/A,,Clear,300,2013-05-28 00:35:00
5:55 PM,91.4,32.0,12,29.74,10.0,WNW,12.7,-,N/A,,Clear,290,2013-05-28 00:55:00
6:15 PM,91.4,30.2,11,29.74,10.0,WNW,11.5,-,N/A,,Clear,290,2013-05-28 01:15:00
6:35 PM,91.4,32.0,12,29.74,10.0,NW,8.1,-,N/A,,Clear,310,2013-05-28 01:35:00
6:55 PM,89.6,30.2,12,29.74,10.0,WNW,9.2,-,N/A,,Clear,300,2013-05-28 01:55:00
7:15 PM,89.6,28.4,11,29.74,10.0,NW,5.8,-,N/A,,Clear,310,2013-05-28 02:15:00
7:35 PM,87.8,26.6,11,29.74,10.0,WNW,6.9,-,N/A,,Clear,300,2013-05-28 02:35:00
7:55 PM,86.0,24.8,11,29.74,10.0,WNW,6.9,-,N/A,,Clear,290,2013-05-28 02:55:00
8:15 PM,84.2,24.8,11,29.75,10.0,NW,5.8,-,N/A,,Clear,310,2013-05-28 03:15:00
8:35 PM,84.2,24.8,11,29.75,10.0,NW,5.8,-,N/A,,Clear,310,2013-05-28 03:35:00
8:55 PM,82.4,24.8,12,29.76,10.0,NNW,5.8,-,N/A,,Clear,330,2013-05-28 03:55:00
9:15 PM,80.6,26.6,14,29.76,10.0,NW,5.8,-,N/A,,Clear,320,2013-05-28 04:15:00
9:35 PM,80.6,26.6,14,29.77,10.0,NNW,5.8,-,N/A,,Clear,330,2013-05-28 04:35:00
9:55 PM,78.8,26.6,15,29.77,10.0,WNW,5.8,-,N/A,,Clear,300,2013-05-28 04:55:00
10:15 PM,77.0,26.6,16,29.78,10.0,Calm,Calm,-,N/A,,Clear,0,2013-05-28 05:15:00
10:35 PM,75.2,24.8,15,29.78,10.0,West,5.8,-,N/A,,Clear,270,2013-05-28 05:35:00
10:55 PM,75.2,24.8,15,29.78,10.0,West,8.1,-,N/A,,Clear,270,2013-05-28 05:55:00
11:15 PM,75.2,24.8,15,29.77,10.0,West,6.9,-,N/A,,Clear,280,2013-05-28 06:15:00
11:35 PM,73.4,24.8,16,29.76,10.0,West,6.9,-,N/A,,Clear,280,2013-05-28 06:35:00
11:55 PM,73.4,24.8,16,29.76,10.0,West,4.6,-,N/A,,Clear,280,2013-05-28 06:55:00